Dewpoint
53 48 47 49 50 50 46 46 39 42 35 29 29 31 29 31 32 26 32 36 44 51 52 53 53 52 48 52 53 54 56 52 54 50 49 61 67 65 66 67 67 67 68 69 69 69 69 69 69 69 68 68 67 67 66 67 68 67 68 69 69 69 69 69 68 69 68 68 67 68 68 68 68 67 67 65 64 63 63 64 65 66 66 66 66 66 67 67 67 66 66 66 66 65 65 64 63
47 46 48 50 49 49 45 44 40 34 33 28 32 31 30 31 30 32 44 48 49 51 53 53 53 54 53 53 52 55 57 59 59 59 60 63 66 68 67 67 67 66 67 68 69 69 68 69 69 68 68 67 67 66 67 67 68 68 69 70 69 69 69 68 68 69 68 68 68 68 67 68 67 65 63 63 63 62 62 63 63 64 64 64 64 64 65 65 64 64 64 65 66 66 66 64 63
46 45 46 47 47 46 45 44 36 30 26 24 30 32 30 27 36 47 49 50 52 52 51 53 54 52 51 51 52 53 54 59 59 60 61 63 63 64 68 68 67 67 68 68 69 68 67 68 69 69 67 67 67 67 68 68 68 69 69 68 69 69 68 69 68 68 68 68 68 68 67 65 64 63 63 63 63 62 62 62 62 63 62 63 62 62 63 62 62 63 63 63 65 64 65 65 64
46 49 48 45 46 46 43 42 38 28 25 29 29 29 28 38 46 46 47 46 46 42 45 53 52 55 50 50 52 53 55 57 62 62 60 63 64 65 66 68 67 68 69 69 69 68 67 68 69 69 67 67 67 68 68 69 69 69 69 68 68 68 68 68 68 69 68 68 67 66 64 64 64 64 63 63 62 62 62 61 62 62 61 61 62 62 61 61 60 61 62 62 63 62 64 64 64
43 48 51 46 46 43 44 43 38 34 25 30 27 29 35 43 42 43 47 50 49 45 53 52 52 57 56 55 55 52 53 58 61 61 62 63 65 67 67 68 66 67 68 70 69 67 67 68 69 69 69 68 68 69 69 69 69 69 69 69 69 69 68 68 68 68 68 67 66 65 65 65 65 65 64 63 62 62 63 62 62 62 61 61 62 62 62 61 60 60 61 61 61 62 64 63 63
45 46 50 47 43 45 43 40 37 33 34 32 28 32 38 41 43 46 49 50 51 51 51 51 51 53 55 57 56 54 57 55 61 60 62 63 66 68 68 68 68 67 68 69 70 68 67 69 69 69 69 69 69 69 69 69 69 69 69 69 69 69 68 68 68 67 67 66 66 66 66 65 65 65 65 64 62 62 62 62 61 62 61 62 61 60 62 61 60 60 61 60 60 60 61 61 62
43 45 47 47 46 46 42 39 37 34 37 38 33 36 38 42 45 47 47 48 50 51 53 52 53 50 50 55 54 57 55 57 56 59 61 62 64 66 67 68 68 67 68 69 70 70 68 68 69 69 69 67 68 69 69 69 69 69 68 68 68 68 68 68 67 67 66 66 66 66 65 65 65 65 65 65 64 63 63 62 62 61 61 61 62 62 62 62 61 61 61 60 61 60 59 59 60
50 47 47 45 44 43 41 39 37 37 36 40 40 36 38 41 38 44 44 43 46 47 51 53 53 52 51 53 51 54 53 53 57 57 58 58 62 63 65 67 67 67 68 68 69 69 69 68 69 69 69 68 68 69 68 68 68 68 68 68 67 68 68 67 67 67 67 66 66 65 65 65 65 65 64 64 64 64 63 63 63 62 62 61 61 61 61 62 62 61 61 61 61 61 60 60 60
45 45 49 46 42 44 41 39 38 40 40 44 44 46 44 38 38 47 48 49 49 49 49 50 51 50 52 51 51 54 53 52 53 54 55 56 57 60 61 61 66 66 68 68 69 68 70 68 68 69 69 68 69 68 67 67 67 68 68 68 67 67 67 67 67 67 66 66 66 66 66 65 65 65 65 64 64 64 63 63 62 63 62 62 61 61 61 61 61 62 62 61 61 61 60 60 60
44 45 43 44 44 39 39 40 37 40 43 47 46 46 43 40 48 48 49 49 50 50 49 52 52 50 50 49 50 51 52 50 50 52 54 54 57 58 58 60 60 61 63 66 68 69 69 68 67 68 68 67 67 67 68 67 67 67 67 67 67 67 67 67 67 67 66 66 66 66 66 65 66 66 66 65 65 65 64 63 63 62 62 62 63 62 62 61 61 62 62 62 62 62 61 61 61
39 44 49 42 40 37 38 39 39 41 41 46 47 48 49 49 49 49 50 50 50 50 49 45 50 49 49 50 51 55 52 48 49 51 53 53 56 55 55 58 59 59 62 64 65 68 67 68 67 67 67 67 67 67 68 68 68 68 68 68 67 67 67 67 67 67 66 66 67 67 66 66 66 66 66 66 66 66 65 65 65 65 64 64 63 63 62 63 64 63 63 62 62 62 63 63 63
38 40 45 38 37 37 36 39 39 43 46 46 45 47 48 50 49 48 48 48 49 49 47 43 50 50 49 48 50 52 49 47 48 50 52 53 57 56 54 55 57 57 60 62 63 66 69 68 68 68 66 66 66 67 67 67 68 68 68 68 68 68 68 68 68 68 68 68 67 67 67 67 67 67 67 67 66 66 66 66 66 66 65 65 65 65 65 65 65 65 65 65 65 65 64 64 64
40 42 40 38 36 36 40 39 41 44 44 44 45 45 45 44 44 45 45 46 48 48 46 42 43 46 48 49 51 49 46 47 48 49 51 52 54 51 51 52 55 57 58 61 62 63 67 67 68 67 67 66 65 65 66 66 66 66 67 67 67 67 67 67 67 67 67 66 66 66 66 66 66 66 66 66 66 66 66 66 66 66 66 66 66 65 65 65 65 65 65 65 64 64 65 64 65
42 44 40 36 43 37 39 39 42 41 43 44 43 42 42 43 42 44 44 42 41 43 41 41 46 49 46 52 50 45 45 47 47 49 50 51 49 47 50 53 52 53 57 58 60 62 63 66 66 66 67 67 66 66 65 65 65 65 65 66 66 66 66 66 66 65 65 65 65 64 65 65 65 65 65 64 64 64 64 64 64 65 65 66 66 66 65 65 65 65 65 64 64 64 65 66 66
42 45 40 40 38 40 40 39 40 41 44 44 43 41 41 41 41 40 40 41 40 40 44 41 40 44 45 44 47 42 43 45 46 46 49 51 46 45 46 48 50 52 53 56 58 60 62 64 65 66 67 67 66 67 67 65 64 64 64 64 64 64 64 64 64 64 64 64 64 64 64 64 64 64 64 64 64 64 64 63 62 63 64 64 65 66 66 66 66 66 66 65 65 65 66 66 66
45 44 39 38 36 36 40 39 41 44 44 42 41 41 40 40 40 39 39 39 38 39 39 38 38 39 39 39 39 41 43 43 43 44 44 46 47 46 43 44 46 48 48 52 51 55 61 62 64 65 66 66 66 67 66 66 63 63 62 62 62 62 62 62 62 63 62 62 63 63 64 64 63 62 63 63 63 63 62 60 61 62 63 64 64 63 63 64 64 63 63 63 63 63 64 64 65
45 47 36 32 33 37 39 39 42 40 43 41 42 44 40 39 40 40 40 40 38 37 37 36 35 36 35 36 38 40 41 41 41 39 42 43 43 44 44 44 44 45 45 46 48 48 54 59 62 63 65 65 65 64 64 63 62 62 61 61 60 59 59 59 60 61 61 61 61 61 63 62 62 61 62 63 63 63 60 59 60 61 62 63 63 63 63 63 63 63 63 63 63 63 63 63 64
43 38 30 34 32 34 40 39 41 44 42 42 42 41 41 40 41 41 41 40 38 38 37 37 36 35 35 35 36 38 38 33 35 39 39 40 41 42 42 42 42 42 42 43 44 44 48 54 57 59 61 61 61 61 61 61 61 61 60 60 60 59 56 56 56 56 58 60 60 61 61 61 61 61 62 62 62 62 61 59 60 60 61 61 62 63 62 62 63 63 63 63 63 63 63 60 60
36 35 34 29 33 38 40 43 44 43 43 42 42 42 42 41 41 40 38 36 40 39 38 37 37 36 35 34 34 35 34 30 32 34 36 36 37 38 39 41 40 39 39 40 41 41 46 49 54 58 58 59 59 58 59 59 59 59 59 58 58 55 54 53 51 51 52 55 58 59 59 59 60 60 60 61 61 59 60 59 59 60 61 61 61 62 62 62 62 62 62 62 62 62 61 60 59
39 39 32 37 41 42 44 44 45 44 42 39 37 36 37 39 39 40 37 35 34 32 34 35 32 34 33 33 31 30 29 28 31 32 32 33 34 34 36 36 37 38 38 39 39 40 42 45 47 47 49 51 53 54 56 55 55 55 57 55 51 50 50 50 50 50 50 51 53 55 56 57 58 57 58 58 58 59 59 58 58 59 60 60 60 62 62 62 62 63 62 62 63 61 59 58 58
38 36 29 40 42 41 42 42 42 41 40 39 37 37 35 34 38 40 39 38 33 31 31 29 30 30 31 30 29 29 26 27 28 31 31 31 32 32 32 32 33 35 37 38 38 38 39 41 43 44 45 46 48 48 49 49 50 49 50 49 47 46 47 47 46 47 47 48 49 49 52 53 55 55 55 55 55 56 57 57 57 57 58 59 58 61 60 61 60 61 60 60 60 60 60 60 60
38 38 40 40 40 40 42 40 39 39 40 39 38 37 37 34 33 32 35 37 32 31 31 29 29 28 28 29 29 26 26 26 26 28 30 30 30 29 29 31 32 34 36 35 36 37 38 39 40 41 43 44 44 45 45 46 46 45 46 45 44 43 44 43 43 43 42 44 45 46 47 49 50 51 53 53 53 53 53 53 53 53 53 54 54 55 57 58 58 58 59 59 59 59 59 59 59
34 38 39 40 40 39 38 38 38 38 40 37 35 34 33 32 31 31 31 30 30 31 30 30 29 28 27 27 27 27 26 26 26 27 28 29 30 29 28 29 30 31 34 34 34 34 35 36 37 39 39 41 42 42 42 43 43 43 42 42 41 40 40 41 39 39 40 40 42 43 44 44 45 46 48 49 49 49 50 50 50 49 49 49 50 50 52 53 51 52 53 56 57 58 58 56 54
38 37 39 39 39 38 38 36 36 36 36 36 37 38 37 35 32 32 30 30 31 30 29 29 30 29 27 27 27 26 26 26 27 27 27 28 29 29 29 29 29 31 33 32 32 32 34 34 35 36 37 38 39 39 39 39 40 41 41 40 39 38 37 37 36 38 39 36 39 39 40 41 41 42 44 45 45 46 46 46 46 45 44 43 45 46 47 48 47 47 50 51 49 46 48 42 43
36 36 35 35 35 35 35 34 34 34 35 35 36 35 33 32 33 32 33 31 30 30 31 29 27 26 25 25 25 25 25 26 27 28 29 28 29 31 32 31 31 32 31 31 33 33 33 34 32 34 34 35 36 36 36 37 36 37 37 36 35 37 35 34 35 35 34 34 36 38 39 38 38 39 41 40 41 41 41 41 40 39 38 37 40 41 43 44 43 43 46 44 41 41 40 38 40
36 35 35 34 34 34 34 35 34 34 34 34 33 32 33 33 34 32 33 34 34 30 31 31 27 25 25 24 24 23 24 25 27 27 27 28 29 29 30 31 31 31 31 32 33 33 32 31 31 31 33 34 35 34 34 33 34 34 34 34 33 33 32 33 33 32 32 32 33 35 36 36 35 35 37 36 36 37 37 37 36 35 33 33 36 38 39 39 38 39 41 34 34 34 33 34 35
35 34 34 34 34 34 34 34 35 35 34 34 33 32 33 35 33 30 31 34 32 33 30 31 31 26 24 24 24 23 23 23 24 25 26 27 27 27 28 30 31 31 33 32 33 33 33 31 31 30 31 34 33 33 33 31 32 31 32 31 32 31 31 31 30 30 31 31 32 34 34 34 33 33 34 33 32 32 32 31 30 30 29 30 32 34 36 37 35 37 38 31 30 29 30 30 32
34 33 33 32 32 33 33 34 34 34 33 33 32 32 32 33 31 30 30 32 33 31 30 32 28 25 26 23 22 23 24 23 23 23 23 23 25 24 25 26 28 30 31 31 32 33 32 31 30 30 28 30 30 29 32 31 30 30 31 29 30 29 29 28 27 28 29 29 31 32 31 30 30 29 31 32 30 29 29 28 27 27 26 26 27 30 31 33 32 34 35 31 29 28 27 28 32
34 35 33 33 33 33 33 33 34 34 33 35 36 36 31 31 30 30 30 30 31 30 31 32 29 24 24 21 25 22 22 23 24 23 21 22 22 21 21 23 24 28 28 29 29 31 31 32 31 30 28 29 28 27 28 29 29 27 28 28 28 30 27 27 26 27 27 28 30 31 30 29 27 28 27 29 29 27 27 28 25 26 26 26 26 30 30 29 27 27 29 28 24 25 24 26 30
36 34 33 33 33 32 31 33 34 34 34 34 34 34 28 28 30 30 30 29 29 28 27 28 32 26 24 23 22 22 22 22 22 25 24 22 20 20 20 20 22 24 25 26 27 25 28 30 29 30 31 29 29 27 26 27 27 27 26 25 27 25 23 23 24 25 25 25 27 29 29 29 28 27 28 29 27 25 27 26 26 24 25 26 26 26 23 24 24 23 24 24 26 21 21 24 23
34 34 35 34 33 32 31 31 31 32 33 37 33 31 29 27 27 29 30 28 28 26 27 28 30 27 26 29 25 23 24 21 20 20 25 26 20 20 20 19 20 22 23 25 26 25 24 28 28 27 31 30 29 27 27 27 27 26 24 25 25 25 23 22 22 23 23 24 25 27 28 28 27 28 29 26 25 24 23 23 23 23 25 25 23 24 23 22 25 22 21 22 21 18 19 21 20
35 34 35 36 33 34 30 30 30 32 32 36 35 30 27 26 26 27 29 28 28 25 25 26 27 27 28 26 25 23 23 22 20 19 20 21 24 21 21 19 19 20 21 23 25 24 23 27 29 28 29 29 29 28 27 25 22 23 24 25 23 26 22 23 21 22 23 22 23 27 28 27 27 27 26 26 23 24 21 20 20 24 25 22 24 23 22 22 23 25 21 21 18 18 18 19 18
36 35 35 33 32 31 32 31 30 31 31 32 34 29 26 26 26 26 27 28 24 22 22 23 25 26 26 25 24 24 24 22 23 19 19 21 21 19 19 17 20 19 20 20 22 23 23 25 27 28 26 28 28 25 28 26 24 23 21 21 20 24 21 20 20 22 22 22 21 24 27 25 26 27 27 25 24 24 23 23 21 26 24 23 22 22 20 23 22 24 21 21 21 18 17 19 18
35 36 33 33 31 31 31 30 30 32 30 29 30 29 27 26 25 23 23 24 25 22 22 22 23 23 23 24 24 23 22 21 19 19 21 21 20 20 19 22 20 18 19 19 21 22 22 25 26 28 27 25 26 27 25 24 21 22 22 22 23 21 24 20 19 21 21 20 21 23 26 26 26 26 26 27 23 24 23 24 24 25 23 22 21 21 20 21 22 20 18 19 20 19 15 16 16
32 34 32 31 32 32 30 30 28 29 29 28 28 26 25 24 23 22 20 22 22 22 24 22 21 21 22 22 20 20 20 19 18 17 19 20 22 20 18 19 19 19 17 16 19 21 22 24 24 25 25 24 22 24 26 25 22 21 21 23 23 21 21 20 19 18 20 20 21 25 24 22 26 26 26 26 24 21 21 23 23 26 23 21 20 19 19 19 22 21 21 19 19 21 16 17 15
33 32 31 31 29 28 27 26 26 28 28 28 28 26 24 23 21 19 18 18 19 19 21 23 23 20 20 19 19 18 19 16 19 20 20 18 18 19 18 18 16 17 15 15 19 19 20 22 23 23 23 21 22 22 25 23 20 20 21 19 20 19 20 19 20 18 19 18 23 21 22 22 23 24 26 24 24 22 21 21 23 24 23 20 19 20 18 18 21 21 22 21 20 20 18 18 17
32 32 30 27 26 26 26 27 27 28 24 22 24 24 22 20 19 18 18 19 20 18 20 21 19 20 20 18 18 18 18 17 23 21 20 19 18 17 19 19 17 14 14 15 15 18 18 19 22 22 22 23 21 22 22 22 23 21 20 17 13 14 17 19 18 19 18 18 21 21 22 20 24 23 24 24 22 23 20 20 21 21 22 21 19 19 21 22 21 20 20 19 20 18 16 18 19
29 28 29 27 27 25 26 27 27 28 25 21 21 21 21 19 18 18 18 19 19 18 17 17 15 15 16 17 17 18 17 21 19 17 14 14 16 18 18 18 21 16 15 13 17 16 19 18 19 20 21 21 23 20 21 19 21 20 16 17 16 16 16 14 15 16 18 21 19 20 19 20 22 21 21 23 22 22 20 18 19 19 19 20 21 21 21 22 20 20 21 16 18 18 18 20 20
30 28 28 26 25 25 25 25 25 24 24 22 22 21 19 18 18 17 15 15 16 15 16 15 13 16 14 15 16 17 17 17 17 14 14 13 17 17 17 18 17 16 17 15 18 16 18 17 20 19 20 22 23 24 21 21 20 23 19 18 15 12 15 18 17 18 19 18 17 20 19 20 20 20 21 22 23 21 20 19 18 17 19 20 20 19 18 20 18 19 19 17 15 16 15 20 19
29 29 28 26 27 28 26 24 24 24 25 23 23 23 21 20 19 19 17 12 13 15 16 16 17 14 13 11 14 16 14 17 14 14 11 11 16 14 17 17 16 20 18 16 15 14 14 16 18 20 19 20 21 23 23 23 23 22 22 20 20 17 12 14 19 17 18 18 18 18 18 19 19 19 20 21 18 20 21 19 18 17 17 19 18 18 19 18 17 18 19 19 18 14 13 14 18
31 31 29 28 27 26 25 23 24 25 25 26 27 28 26 24 23 23 19 20 16 16 16 15 18 19 19 22 21 21 13 13 16 11 13 11 12 14 15 16 18 18 20 19 19 14 14 15 18 20 18 18 19 22 22 21 20 19 18 18 20 21 23 16 17 14 16 17 16 16 14 18 18 17 18 18 18 18 20 19 20 17 17 18 17 15 15 16 19 18 19 19 19 16 16 15 17
28 29 30 27 26 25 25 26 27 28 28 29 28 30 29 26 25 25 23 20 18 18 17 15 12 14 18 14 15 18 22 22 17 14 14 17 15 16 16 18 18 19 16 18 20 17 16 16 16 17 18 17 19 20 24 21 18 17 17 14 12 12 9 12 12 13 14 14 13 15 17 15 18 18 17 19 18 19 18 20 21 19 18 16 17 16 16 17 18 19 19 19 18 19 17 16 14
28 27 29 27 27 26 27 27 30 27 27 29 26 27 27 27 27 27 26 25 23 21 20 18 16 14 14 14 14 12 12 13 19 18 19 16 16 16 15 16 19 17 16 18 18 16 17 18 19 18 17 18 22 22 22 22 18 17 18 19 19 16 12 13 13 15 15 13 15 14 14 15 20 20 19 20 20 22 22 21 23 21 18 18 17 16 15 18 18 19 20 19 17 18 18 15 14
26 28 26 26 28 28 29 29 29 26 28 25 22 24 28 28 29 24 23 23 23 23 22 20 19 18 14 9 8 10 10 11 16 16 16 16 15 15 11 14 14 14 17 18 18 15 16 15 18 17 15 16 18 21 21 22 20 18 20 19 19 16 16 14 16 11 16 16 16 16 14 12 17 19 21 21 22 22 22 21 21 21 20 19 19 16 15 17 20 20 20 20 20 17 17 14 14
27 28 28 27 28 29 30 29 27 28 28 24 22 22 26 28 26 22 23 26 27 27 26 24 20 18 11 11 8 11 11 12 12 16 14 13 15 16 15 16 17 17 20 20 17 16 18 20 20 18 14 14 15 20 21 20 20 19 17 15 14 15 17 18 15 17 16 17 17 16 17 15 15 19 22 22 23 22 22 21 22 21 19 20 17 18 16 19 21 21 21 18 18 17 16 16 15
28 28 29 28 27 28 29 29 28 27 26 23 19 18 22 23 25 24 23 24 26 28 28 26 22 18 15 12 11 11 12 17 18 13 14 15 17 18 19 18 19 20 21 23 22 22 22 21 18 15 11 11 13 16 18 19 20 17 17 18 19 16 15 13 18 15 15 15 15 16 16 14 10 13 15 21 23 24 23 21 21 21 19 16 17 17 20 21 21 20 20 20 20 20 17 16 16
29 28 27 28 29 28 27 29 27 25 22 19 18 15 16 18 26 26 26 27 28 27 26 24 23 22 15 15 15 14 8 11 16 18 17 17 18 19 20 20 19 21 25 23 24 23 22 21 18 15 11 10 12 15 18 17 19 18 14 17 19 18 17 18 15 11 10 13 10 9 9 11 11 10 11 11 16 19 21 20 19 19 18 19 18 18 16 15 15 16 17 20 21 21 19 19 18
31 27 27 27 27 26 25 23 24 19 18 15 15 15 16 16 19 26 26 24 24 26 26 24 23 22 17 15 14 10 9 10 14 14 14 16 18 20 21 20 19 20 21 22 23 23 23 21 20 17 14 14 12 15 18 18 17 19 19 17 17 15 13 12 12 12 11 12 12 10 9 9 10 13 12 12 12 14 18 16 18 19 18 17 17 16 16 16 17 17 17 17 18 19 19 19 19
30 28 26 24 23 22 20 23 19 17 16 14 13 14 18 18 18 16 21 25 24 24 22 22 23 22 18 12 11 12 17 19 18 16 16 18 19 17 18 18 20 22 23 21 21 23 22 21 19 17 15 15 16 15 17 17 19 18 17 17 17 14 15 15 13 14 15 13 11 10 11 10 10 13 11 11 14 18 18 17 17 17 16 17 18 19 20 20 20 19 19 20 19 20 19 19 18
27 26 24 23 19 19 18 17 17 19 19 15 14 15 16 18 18 18 15 16 18 21 24 25 24 22 18 13 14 16 24 23 20 19 21 22 22 22 21 20 19 21 21 23 23 24 24 24 20 19 17 17 18 18 17 17 17 17 16 16 14 13 14 16 17 15 14 12 14 13 13 13 12 12 12 14 14 17 18 19 20 20 20 21 22 21 22 22 23 21 21 20 21 19 19 21 20
22 26 23 23 22 21 18 18 16 17 18 14 13 18 21 17 15 16 16 18 21 20 22 26 27 25 25 23 23 23 23 23 25 25 25 23 23 23 24 24 24 26 25 26 26 25 26 24 24 22 19 19 20 20 21 20 17 17 18 19 19 16 16 15 14 17 15 16 16 17 17 17 15 15 15 16 17 19 20 20 21 21 22 22 22 22 24 22 22 21 20 20 19 19 20 20 19
22 23 25 21 20 20 19 15 15 16 16 17 18 17 16 13 17 19 18 19 19 21 22 26 25 25 25 23 22 20 20 20 23 25 26 25 25 25 25 26 26 26 26 27 27 28 29 27 25 23 21 20 20 21 21 20 18 16 18 19 19 19 20 20 19 19 18 19 19 18 18 18 17 17 17 19 21 22 23 23 22 23 22 23 22 22 22 21 22 21 19 19 19 22 21 22 21
20 22 17 18 18 17 12 12 7 13 15 15 14 11 13 12 12 13 18 19 18 21 23 24 25 26 27 26 24 22 22 23 24 27 26 26 26 27 27 26 26 26 27 27 27 28 28 28 28 25 24 24 24 23 22 21 22 21 21 21 21 22 22 22 20 20 21 22 23 22 20 19 19 19 22 22 23 23 23 23 22 22 22 23 22 22 22 22 22 21 19 20 20 20 20 20 20
18 16 15 20 19 19 17 14 9 9 13 11 6 13 10 7 9 14 16 17 16 19 21 23 26 28 27 28 29 27 27 26 26 26 27 27 27 26 27 27 26 25 26 26 26 27 29 28 26 25 23 22 23 22 22 22 23 23 23 23 23 23 22 22 23 22 21 21 22 21 22 22 21 22 23 27 25 23 24 24 22 22 22 23 22 21 21 21 22 20 20 20 20 20 20 20 20
23 19 23 14 13 11 11 13 6 3 2 2 -1 -5 -3 -0 2 3 1 9 12 14 20 22 22 24 27 28 29 30 30 30 29 28 28 29 28 28 28 27 27 26 26 25 27 27 27 26 26 25 23 23 23 24 23 23 23 24 26 24 23 22 22 22 22 21 22 22 22 23 22 23 23 23 22 22 23 22 22 22 22 22 21 21 21 21 21 21 21 20 20 19 20 20 19 19 19
23 23 15 19 19 15 7 4 10 1 -3 -4 3 -4 -11 1 -2 6 4 7 12 13 17 18 20 23 24 26 28 29 31 31 31 30 31 31 31 30 28 28 28 27 27 27 27 27 26 25 25 25 24 24 24 24 24 23 24 24 25 24 23 22 22 23 23 23 22 22 23 23 22 23 23 22 22 23 22 22 22 21 21 21 21 20 20 20 20 20 20 20 20 21 19 20 20 19 19
13 11 8 9 11 14 10 10 10 5 -2 -7 -11 -12 -8 -17 3 8 4 6 13 16 17 21 22 22 23 25 27 30 30 31 32 32 31 32 31 31 30 30 30 29 28 28 28 27 26 26 25 25 24 24 24 24 24 25 25 25 24 24 23 23 23 23 23 23 22 21 21 22 22 22 22 22 22 22 22 21 21 21 20 20 19 20 20 20 20 20 20 20 19 20 20 20 20 19 19
17 16 8 7 5 4 -0 -4 7 8 0 -8 -14 -13 3 -10 11 8 11 14 18 20 20 21 22 20 22 25 27 27 29 29 30 31 31 32 32 32 31 31 32 31 30 29 29 28 27 27 27 27 26 26 25 26 26 26 25 25 25 24 23 23 23 23 22 22 22 22 22 22 23 22 22 22 22 22 21 22 21 21 20 19 19 19 20 19 20 20 20 20 20 22 22 20 19 19 19